Time,TemperatureF,DewpointF,PressureIn,WindDirection,WindDirectionDegrees,WindSpeedMPH,WindSpeedGustMPH,Humidity,HourlyPrecipIn,Conditions,Clouds,dailyrainin,SoftwareType,DateUTC
2013-10-06 07:00:00,79.0,75.0,29.88,NW,320,14.0,-999.0,86,-99.99,,,-99.99,,2013-10-06 07:00:00,
2013-10-06 07:42:00,79.0,75.0,29.88,NW,320,14.0,-999.0,86,-99.99,,,-99.99,,2013-10-06 07:42:00,
2013-10-06 07:52:00,79.0,75.0,29.88,NW,320,14.0,-999.0,86,-99.99,,,-99.99,,2013-10-06 07:52:00,
2013-10-06 10:00:00,81.0,74.0,29.87,West,270,22.0,-999.0,81,-99.99,,,-99.99,,2013-10-06 10:00:00,
2013-10-06 10:42:00,81.0,74.0,29.87,West,270,22.0,-999.0,81,-99.99,,,-99.99,,2013-10-06 10:42:00,
2013-10-06 10:53:00,81.0,74.0,29.87,West,270,22.0,-999.0,81,-99.99,,,-99.99,,2013-10-06 10:53:00,
2013-10-06 11:00:00,81.0,74.0,29.88,West,260,31.0,-999.0,81,-99.99,,,-99.99,,2013-10-06 11:00:00,
2013-10-06 11:42:00,81.0,74.0,29.88,West,260,31.0,-999.0,81,-99.99,,,-99.99,,2013-10-06 11:42:00,
2013-10-06 11:52:00,81.0,74.0,29.88,West,260,31.0,-999.0,81,-99.99,,,-99.99,,2013-10-06 11:52:00,
2013-10-06 12:00:00,81.0,76.0,29.90,WSW,250,30.0,-999.0,85,-99.99,,,-99.99,,2013-10-06 12:00:00,
2013-10-06 12:42:00,81.0,76.0,29.90,WSW,250,30.0,-999.0,85,-99.99,,,-99.99,,2013-10-06 12:42:00,
2013-10-06 12:52:00,81.0,76.0,29.90,WSW,250,30.0,-999.0,85,-99.99,,,-99.99,,2013-10-06 12:52:00,
2013-10-06 18:00:00,83.0,78.0,29.96,WSW,240,23.0,-999.0,83,-99.99,,,-99.99,,2013-10-06 18:00:00,
2013-10-06 18:42:00,83.0,78.0,29.96,WSW,240,23.0,-999.0,83,-99.99,,,-99.99,,2013-10-06 18:42:00,
2013-10-06 18:52:00,83.0,78.0,29.96,WSW,240,23.0,-999.0,83,-99.99,,,-99.99,,2013-10-06 18:52:00,
2013-10-06 19:00:00,83.0,77.0,29.94,WSW,240,21.0,-999.0,81,-99.99,,,-99.99,,2013-10-06 19:00:00,
2013-10-06 19:22:00,83.0,77.0,29.94,WSW,240,21.0,-999.0,81,-99.99,,,-99.99,,2013-10-06 19:22:00,
2013-10-06 19:32:00,83.0,77.0,29.94,WSW,240,21.0,-999.0,81,-99.99,,,-99.99,,2013-10-06 19:32:00,
2013-10-06 19:42:00,83.0,77.0,29.94,WSW,240,21.0,-999.0,81,-99.99,,,-99.99,,2013-10-06 19:42:00,
2013-10-06 19:52:00,83.0,77.0,29.94,WSW,240,21.0,-999.0,81,-99.99,,,-99.99,,2013-10-06 19:52:00,
2013-10-06 22:00:00,82.0,76.0,29.91,SW,220,16.0,-999.0,81,-99.99,,,-99.99,,2013-10-06 22:00:00,
2013-10-06 22:42:00,82.0,76.0,29.91,SW,220,16.0,-999.0,81,-99.99,,,-99.99,,2013-10-06 22:42:00,
2013-10-06 22:53:00,82.0,76.0,29.91,SW,220,16.0,-999.0,81,-99.99,,,-99.99,,2013-10-06 22:53:00,
2013-10-06 23:00:00,82.0,75.0,29.91,SW,230,9.0,-999.0,78,-99.99,,,-99.99,,2013-10-06 23:00:00,
2013-10-06 23:42:00,82.0,75.0,29.91,SW,230,9.0,-999.0,78,-99.99,,,-99.99,,2013-10-06 23:42:00,
2013-10-06 23:52:00,82.0,75.0,29.91,SW,230,9.0,-999.0,78,-99.99,,,-99.99,,2013-10-06 23:52:00,